Regional Weather Roundup
Issued by NWS

Home | Current Version | Previous Version | Text Only | Print | Product List | Glossary Off
Versions: 1 2 3 4 5 6 7 8 9 10 11 12 13 14 15 16 17 18 19 20 21 22 23 24 25 26 27 28 29 30 31 32 33 34 35 36 37 38 39 40 41 42 43 44 45 46 47 48 49 50

000
ASUS43 KTOP 270508
RWRKS

WEATHER ROUNDUP FOR KANSAS
NATIONAL WEATHER SERVICE GOODLAND KS
1200 AM CDT FRI MAR 27 2015

NOTE:  "FAIR" INDICATES FEW OR NO CLOUDS BELOW 12,000 FEET WITH NO
SIGNIFICANT WEATHER AND/OR OBSTRUCTIONS TO VISIBILITY.

KSZ001>006-013>018-027>032-041>047-270600-
NORTHWEST KANSAS

CITY           SKY/WX    TMP DP  RH WIND       PRES   REMARKS
GOODLAND       CLOUDY    46  31  55 NE15      30.18S
HAYS           MOCLDY    37  27  65 NE15G24   30.17R WCI  28
HILL CITY      CLOUDY    38  32  79 NE17      30.20R WCI  28
RUSSELL        CLOUDY    38  34  85 NE20G31   30.14R WCI  28
$$

KSZ061>065-074>080-084>089-270600-
SOUTHWEST KANSAS

CITY           SKY/WX    TMP DP  RH WIND       PRES   REMARKS
DODGE CITY     MOCLDY    47  29  49 N12       30.14R
ELKHART          N/A     48  27  44 NW3         N/A
GARDEN CITY    MOCLDY    48  32  53 N9        30.14R
GREAT BEND     PTCLDY    46  30  53 NE18G25   30.12R
LIBERAL        MOCLDY    45  28  53 NW6       30.16S
PRATT          MOCLDY    45  30  57 N10       30.09S
$$

KSZ066>073-081>083-090>101-270600-
SOUTHEAST KANSAS

CITY           SKY/WX    TMP DP  RH WIND       PRES   REMARKS
CHANUTE        MOCLDY    43  38  82 NE12      30.10R
COFFEYVILLE    CLOUDY    45  35  68 E3        30.07R
HUTCHINSON     PTCLDY    47  34  60 N12       30.07R
MEDICINE LODGE   N/A     50  33  52 N3        30.08R
NEWTON         PTCLDY    45  34  65 NE14G22   30.08R
PARSONS        CLOUDY    48  33  56 N6        30.11R
WICHITA INTL   FAIR      43  33  68 W9        30.03S
WICHITA JABRA  CLEAR     45  33  63 W8        30.03S
WICHITA MCCONL CLEAR     47  34  60 W5        30.03S
WINFIELD       CLEAR     42  32  67 NW6       30.06R
$$

KSZ007>012-019>026-033>040-048>060-102>105-270600-
NORTHEAST KANSAS

CITY           SKY/WX    TMP DP  RH WIND       PRES   REMARKS
CONCORDIA      CLOUDY    36  33  89 NE10      30.19R WCI  28
EMPORIA        CLOUDY    40  38  93 NE13      30.10S WCI  32
LAWRENCE       LGT RAIN  38  35  89 N12       30.16R WCI  30
MANHATTAN      CLOUDY    38  35  89 NE15      30.18R WCI  29
MARYSVILLE     CLOUDY    34  32  93 NE10      30.20R WCI  26
OLATHE IND     LGT RAIN  38  35  89 N12       30.15R WCI  30
OLATHE EXE     LGT RAIN  39  36  89 N13       30.14R WCI  31
SALINA         MOCLDY    40  34  79 NE15G24   30.16R WCI  32
TOPEKA BILLARD LGT RAIN  38  35  89 NE15      30.18R WCI  29
TOPEKA FORBES  CLOUDY    39  35  86 N13       30.16R WCI  31
$$



USA.gov is the U.S. government's official web portal to all federal, state and local government web resources and services.